Starlink 31098

operational
NORAD ID: 58716 Int'l Des: 2024-002 Owner: SPXS Country: US Constellation: starlink
LEOCIRCULAR

Starlink 31098について

説明を読み込み中...

リアルタイム位置

3D地球を読み込み中...

次回通過

高度履歴

Altitude vs Time

uPlot chart will show altitude changes over time

軌道要素

1 58716U 24002M 25305.85328245 -.00004172 00000-0 -12872-3 0 9996
2 58716 53.1587 103.6763 0001212 90.2996 269.8144 15.30219787102443
Epoch: Nov 1, 2025 • Age: 42 hours

現在のステータス

高度 476.4 km
速度 7.63 km/s
衛星直下点 -2.43°S, 23.9°E
打ち上げ日 Jan 3, 2024
運用期間 1.8 years
タイプ internet

技術仕様

分類 Payload
質量 730.00 kg
乾燥質量 700.00 kg
総質量 730.00 kg
長さ 0.30 m
直径 4.10 m
スパン 29.00 m
形状 Box + pan
製造者 SPXS
バスタイプ Starlink V2M
フェーズステータス In Orbit
所有者/国 SPXS/US

大規模コンステレーション

Loading constellations...